NPAS44 EGHH-EGHH

Flight info

Callsign NPAS44
Flight time 0h 18m
Altitude 4000
Route NATIONAL POLICE AIR SERVICE OPS
Aircraft H135/L-SFG/C

Departure

Time 2026-05-07 18:24
Airport Bournemouth Airport (EGHH)

Arrival

Time 2026-05-07 18:42
Airport Bournemouth Airport (EGHH)
Time Latitude Longitude Altitude Speed Heading
2026-05-07 18:07 50.78105 -1.84981 43 ft 0 kts 178°
2026-05-07 18:19 50.78105 -1.84982 43 ft 0 kts 160°
2026-05-07 18:19 50.78102 -1.84983 44 ft 1 kts 164°
2026-05-07 18:19 50.78091 -1.84975 52 ft 5 kts 148°
2026-05-07 18:19 50.78048 -1.84949 65 ft 7 kts 177°
2026-05-07 18:20 50.78017 -1.84959 58 ft 1 kts 211°
2026-05-07 18:20 50.78010 -1.84962 58 ft 2 kts 210°
2026-05-07 18:20 50.78001 -1.84967 56 ft 1 kts 208°
2026-05-07 18:20 50.78000 -1.84968 55 ft 1 kts 211°
2026-05-07 18:21 50.77997 -1.84969 55 ft 0 kts 209°
2026-05-07 18:21 50.77997 -1.84968 55 ft 0 kts 210°
2026-05-07 18:21 50.77997 -1.84970 44 ft 0 kts 205°
2026-05-07 18:21 50.77994 -1.84973 44 ft 0 kts 200°
2026-05-07 18:22 50.77972 -1.84987 51 ft 7 kts 192°
2026-05-07 18:22 50.77932 -1.85008 56 ft 11 kts 187°
2026-05-07 18:22 50.77888 -1.84973 60 ft 1 kts 117°
2026-05-07 18:22 50.77890 -1.84965 60 ft 0 kts 86°
2026-05-07 18:23 50.77894 -1.84919 92 ft 20 kts 79°
2026-05-07 18:23 50.77996 -1.84302 96 ft 84 kts 73°
2026-05-07 18:23 50.78149 -1.83320 213 ft 96 kts 79°
2026-05-07 18:23 50.77758 -1.82655 309 ft 97 kts 161°
2026-05-07 18:24 50.77065 -1.82827 417 ft 105 kts 191°
2026-05-07 18:24 50.76330 -1.83135 551 ft 115 kts 182°
2026-05-07 18:24 50.75552 -1.82921 723 ft 118 kts 160°
2026-05-07 18:24 50.74709 -1.82822 793 ft 130 kts 191°
2026-05-07 18:25 50.74010 -1.83842 821 ft 137 kts 217°
2026-05-07 18:25 50.73203 -1.83872 1059 ft 123 kts 140°
2026-05-07 18:25 50.72926 -1.82639 1215 ft 124 kts 85°
2026-05-07 18:25 50.73022 -1.81242 1158 ft 129 kts 82°
2026-05-07 18:26 50.73093 -1.79855 1198 ft 124 kts 83°
2026-05-07 18:26 50.73159 -1.78557 1225 ft 125 kts 83°
2026-05-07 18:26 50.73439 -1.77274 1176 ft 129 kts 41°
2026-05-07 18:26 50.74329 -1.77396 877 ft 145 kts 317°
2026-05-07 18:27 50.74633 -1.78785 796 ft 132 kts 266°
2026-05-07 18:27 50.74629 -1.80195 695 ft 124 kts 249°
2026-05-07 18:27 50.74147 -1.81219 678 ft 118 kts 214°
2026-05-07 18:27 50.73729 -1.81801 594 ft 119 kts 209°
2026-05-07 18:28 50.72951 -1.82837 768 ft 126 kts 245°
2026-05-07 18:28 50.72763 -1.84206 883 ft 122 kts 236°
2026-05-07 18:28 50.72101 -1.84886 991 ft 115 kts 182°
2026-05-07 18:28 50.71925 -1.84083 1157 ft 115 kts 53°
2026-05-07 18:29 50.72493 -1.83088 1162 ft 127 kts 36°
2026-05-07 18:29 50.73342 -1.82715 1224 ft 125 kts 19°
2026-05-07 18:29 50.73844 -1.81681 1134 ft 123 kts 73°
2026-05-07 18:29 50.73814 -1.80522 1234 ft 91 kts 99°
2026-05-07 18:30 50.73449 -1.80040 925 ft 76 kts 187°
2026-05-07 18:30 50.73106 -1.80670 655 ft 80 kts 245°
2026-05-07 18:30 50.73220 -1.81466 592 ft 77 kts 310°
2026-05-07 18:30 50.73655 -1.81719 628 ft 64 kts 24°
2026-05-07 18:31 50.73983 -1.81234 677 ft 70 kts 62°
2026-05-07 18:31 50.74261 -1.80550 696 ft 76 kts 81°
2026-05-07 18:31 50.74188 -1.79760 777 ft 75 kts 115°
2026-05-07 18:31 50.73937 -1.79035 923 ft 78 kts 127°
2026-05-07 18:32 50.73811 -1.78195 1041 ft 81 kts 85°
2026-05-07 18:32 50.73953 -1.77340 1112 ft 82 kts 84°
2026-05-07 18:32 50.74066 -1.76442 1124 ft 81 kts 88°
2026-05-07 18:32 50.73755 -1.75811 1082 ft 90 kts 160°
2026-05-07 18:33 50.73121 -1.75579 951 ft 93 kts 135°
2026-05-07 18:33 50.73214 -1.74673 1049 ft 92 kts 54°
2026-05-07 18:33 50.73836 -1.74434 1078 ft 105 kts 345°
2026-05-07 18:33 50.74185 -1.75345 1158 ft 102 kts 265°
2026-05-07 18:34 50.73970 -1.76400 1251 ft 95 kts 228°
2026-05-07 18:34 50.73375 -1.76656 1269 ft 90 kts 161°
2026-05-07 18:34 50.73152 -1.75888 1288 ft 88 kts 78°
2026-05-07 18:34 50.73690 -1.75403 1140 ft 107 kts 358°
2026-05-07 18:35 50.74203 -1.76265 838 ft 116 kts 283°
2026-05-07 18:35 50.74276 -1.77081 740 ft 109 kts 262°
2026-05-07 18:35 50.74009 -1.78087 710 ft 97 kts 230°
2026-05-07 18:35 50.73441 -1.79105 678 ft 89 kts 223°
2026-05-07 18:36 50.73181 -1.79613 657 ft 92 kts 230°
2026-05-07 18:36 50.72842 -1.80514 625 ft 99 kts 237°
2026-05-07 18:36 50.72398 -1.81370 649 ft 104 kts 212°
2026-05-07 18:36 50.72024 -1.82379 730 ft 116 kts 253°
2026-05-07 18:37 50.71911 -1.83673 836 ft 123 kts 261°
2026-05-07 18:37 50.71807 -1.85026 1014 ft 122 kts 254°
2026-05-07 18:37 50.71584 -1.86324 1279 ft 129 kts 253°
2026-05-07 18:37 50.71386 -1.87794 1309 ft 141 kts 254°
2026-05-07 18:38 50.71330 -1.89253 1508 ft 140 kts 301°
2026-05-07 18:38 50.72220 -1.89555 1613 ft 136 kts 16°
2026-05-07 18:38 50.72970 -1.88672 1513 ft 136 kts 59°
2026-05-07 18:38 50.73276 -1.87311 1557 ft 131 kts 82°
2026-05-07 18:39 50.73363 -1.85911 1569 ft 127 kts 91°
2026-05-07 18:39 50.73349 -1.84506 1442 ft 131 kts 92°
2026-05-07 18:39 50.73321 -1.83069 1273 ft 132 kts 93°
2026-05-07 18:39 50.73243 -1.81639 1185 ft 129 kts 97°
2026-05-07 18:40 50.73071 -1.80264 1033 ft 128 kts 106°
2026-05-07 18:40 50.72470 -1.79452 1035 ft 118 kts 178°
2026-05-07 18:40 50.72025 -1.80416 1081 ft 130 kts 276°
2026-05-07 18:40 50.72412 -1.81734 1146 ft 134 kts 298°
2026-05-07 18:41 50.72958 -1.82813 1293 ft 128 kts 335°
2026-05-07 18:41 50.73801 -1.82670 1154 ft 124 kts 39°
2026-05-07 18:41 50.74242 -1.81604 1120 ft 116 kts 73°
2026-05-07 18:41 50.74198 -1.80477 1221 ft 94 kts 116°
2026-05-07 18:42 50.73792 -1.79685 1312 ft 84 kts 140°
2026-05-07 18:42 50.73370 -1.79343 1465 ft 50 kts 159°
2026-05-07 18:42 50.73250 -1.79421 1415 ft 4 kts 144°
2026-05-07 18:42 50.73241 -1.79449 1232 ft 3 kts 142°
2026-05-07 18:43 50.73232 -1.79468 1174 ft 2 kts 142°
2026-05-07 18:43 50.73224 -1.79483 1174 ft 2 kts 141°
2026-05-07 18:43 50.73218 -1.79496 1177 ft 1 kts 142°
2026-05-07 18:43 50.73211 -1.79510 1177 ft 2 kts 141°
2026-05-07 18:44 50.73204 -1.79523 1179 ft 1 kts 142°
2026-05-07 18:44 50.73197 -1.79538 1182 ft 2 kts 141°
2026-05-07 18:44 50.73190 -1.79552 1184 ft 2 kts 142°
2026-05-07 18:44 50.73183 -1.79565 1187 ft 2 kts 141°
2026-05-07 18:45 50.73175 -1.79580 1189 ft 2 kts 141°
2026-05-07 18:45 50.73167 -1.79597 1192 ft 2 kts 139°
2026-05-07 18:45 50.73159 -1.79612 1195 ft 2 kts 137°
2026-05-07 18:45 50.73151 -1.79625 1198 ft 2 kts 138°
2026-05-07 18:46 50.73131 -1.79646 1207 ft 16 kts 141°
2026-05-07 18:46 50.73063 -1.80244 1156 ft 110 kts 295°
2026-05-07 18:46 50.73453 -1.81500 1087 ft 142 kts 293°
2026-05-07 18:46 50.73762 -1.82997 1137 ft 149 kts 284°
2026-05-07 18:47 50.74108 -1.84587 1117 ft 155 kts 291°
2026-05-07 18:47 50.74624 -1.86126 1062 ft 155 kts 299°
2026-05-07 18:47 50.75296 -1.87440 1203 ft 151 kts 309°
2026-05-07 18:47 50.75845 -1.88864 1239 ft 150 kts 298°
2026-05-07 18:48 50.76604 -1.89732 1232 ft 136 kts 353°
2026-05-07 18:48 50.77223 -1.88943 1025 ft 120 kts 69°
2026-05-07 18:48 50.77436 -1.87606 673 ft 129 kts 77°
2026-05-07 18:48 50.77661 -1.86276 428 ft 116 kts 74°
2026-05-07 18:49 50.77827 -1.85324 261 ft 64 kts 78°
2026-05-07 18:49 50.77882 -1.85037 138 ft 4 kts 78°
2026-05-07 18:49 50.77914 -1.85029 105 ft 8 kts 71°
2026-05-07 18:49 50.77985 -1.84972 83 ft 11 kts 18°
2026-05-07 18:50 50.78044 -1.84945 62 ft 8 kts 22°
2026-05-07 18:50 50.78082 -1.84936 59 ft 4 kts 339°
2026-05-07 18:50 50.78097 -1.84975 58 ft 4 kts 241°
2026-05-07 18:50 50.78096 -1.84990 49 ft 1 kts 205°
2026-05-07 18:51 50.78095 -1.84993 43 ft 0 kts 180°